This is the latest recevied weather packets stored in our database for station/object LU8FCJ-5. If no packets are shown the sender has not sent any weather packets the latest 10 day(s).
| Time | Temp. | Humidity | Pressure | Rain* | Wind** | Luminosity | Snow |
|---|---|---|---|---|---|---|---|
| 1777787819 | 3.33° C | 73% | 1025.5 hPa | 0 mm | - | - | - |
| 1777787198 | 2.78° C | 76% | 1025.8 hPa | 0 mm | - | - | - |
| 1777786887 | 2.78° C | 76% | 1025.7 hPa | 0 mm | - | - | - |
| 1777786589 | 2.78° C | 76% | 1025.7 hPa | 0 mm | - | - | - |
| 1777786267 | 2.78° C | 75% | 1025.7 hPa | 0 mm | - | - | - |
| 1777785957 | 2.78° C | 75% | 1025.9 hPa | 0 mm | - | - | - |
| 1777785647 | 2.78° C | 75% | 1025.8 hPa | 0 mm | - | - | - |
| 1777785336 | 2.78° C | 73% | 1025.8 hPa | 0 mm | - | - | - |
| 1777785033 | 3.33° C | 71% | 1025.8 hPa | 0 mm | - | - | - |
| 1777784716 | 3.89° C | 71% | 1026 hPa | 0 mm | - | - | - |
| 1777784407 | 3.89° C | 74% | 1026.1 hPa | 0 mm | - | - | - |
| 1777784095 | 3.89° C | 75% | 1026.4 hPa | 0 mm | - | - | - |
| 1777783787 | 3.89° C | 76% | 1026.2 hPa | 0 mm | - | - | - |
| 1777783475 | 3.89° C | 73% | 1026.1 hPa | 0 mm | - | - | - |
| 1777783166 | 4.44° C | 74% | 1026.4 hPa | 0 mm | - | - | - |
| 1777782855 | 4.44° C | 75% | 1026.4 hPa | 0 mm | - | - | - |
| 1777782545 | 3.89° C | 76% | 1026.1 hPa | 0 mm | - | - | - |
| 1777782235 | 4.44° C | 76% | 1026.5 hPa | 0 mm | - | - | - |
| 1777781925 | 4.44° C | 77% | 1026.5 hPa | 0 mm | - | - | - |
| 1777781614 | 4.44° C | 77% | 1026.6 hPa | 0 mm | - | - | - |
| 1777781304 | 4.44° C | 77% | 1026.5 hPa | 0 mm | - | - | - |
| 1777780994 | 4.44° C | 78% | 1026.5 hPa | 0 mm | - | - | - |
| 1777780684 | 5° C | 80% | 1026.4 hPa | 0 mm | - | - | - |
| 1777780374 | 5.56° C | 78% | 1026.4 hPa | 0 mm | - | - | - |
| 1777780064 | 5° C | 72% | 1026.4 hPa | 0 mm | - | - | - |
* Rain latest hour (hover to see other rain measurements)
** Current wind speed in m/s (hover to see current wind gust speed)